KC1UIX-13 Weather Reports


Display with metric or nautical units.
time (UTC)temp
F
wind
direction
speed
MPH
gust
MPH
rain 1hr
in
rain 24hr
in
rain mn
in
humidity
%
barometer
mb
20260504213019 70 250 5.0 11.0 0.00 0.00 0.00 36 1005.6
20260504212019 70 248 5.0 12.0 0.00 0.00 0.00 35 1005.6
20260504211016 69 253 5.0 11.0 0.00 0.00 0.00 37 1005.6
20260504210017 71 254 7.0 13.0 0.00 0.00 0.00 35 1005.5
20260504205040 71 253 7.0 13.0 0.00 0.00 0.00 34 1005.5
20260504204020 71 252 8.0 12.0 0.00 0.00 0.00 34 1005.6
20260504203020 71 263 8.0 13.0 0.00 0.00 0.00 34 1005.6
20260504202018 71 254 7.0 13.0 0.00 0.00 0.00 35 1005.5
20260504201018 71 248 7.0 14.0 0.00 0.00 0.00 34 1005.5
20260504200018 71 244 6.0 12.0 0.00 0.00 0.00 35 1005.5
20260504195018 71 248 6.0 13.0 0.00 0.00 0.00 35 1005.6
20260504194018 70 253 8.0 16.0 0.00 0.00 0.00 35 1005.6
20260504193019 70 257 8.0 14.0 0.00 0.00 0.00 34 1005.7
20260504192018 69 260 7.0 13.0 0.00 0.00 0.00 35 1005.7
20260504191038 69 263 7.0 14.0 0.00 0.00 0.00 35 1005.7
20260504190019 68 266 9.0 16.0 0.00 0.00 0.00 35 1005.8
20260504185018 68 267 9.0 15.0 0.00 0.00 0.00 35 1005.9
20260504184039 70 256 9.0 14.0 0.00 0.00 0.00 35 1005.8
20260504183016 70 259 9.0 15.0 0.00 0.00 0.00 34 1005.7
20260504182020 70 262 10.0 20.0 0.00 0.00 0.00 34 1005.7
20260504181020 70 255 10.0 16.0 0.00 0.00 0.00 34 1005.7
20260504180020 69 254 9.0 14.0 0.00 0.00 0.00 34 1005.8
20260504175020 69 253 8.0 15.0 0.00 0.00 0.00 35 1005.8
20260504174017 68 246 9.0 14.0 0.00 0.00 0.00 36 1005.8
20260504173017 67 244 7.0 13.0 0.00 0.00 0.00 38 1005.9
20260504172017 67 240 6.0 13.0 0.00 0.00 0.00 38 1006.0
20260504171041 68 243 8.0 15.0 0.00 0.00 0.00 37 1006.1
20260504151017 61 229 2.0 6.0 0.00 0.00 0.00 52 1007.4
20260504141017 58 237 5.0 11.0 0.00 0.00 0.00 55 1008.3
20260504081017 43 260 3.0 6.0 0.00 0.00 0.00 65 1009.2
20260504050020 38 12 0.0 2.0 0.00 0.00 0.00 78 1008.9
20260504045017 39 206 0.0 2.0 0.00 0.00 0.00 76 1008.9
20260504044018 39 209 0.0 2.0 0.00 0.00 0.00 75 1008.9
20260504043018 40 237 0.0 2.0 0.00 0.00 0.00 76 1008.9
20260504042018 40 234 1.0 3.0 0.00 0.00 0.00 73 1008.9
20260504041018 40 238 3.0 6.0 0.00 0.00 0.00 73 1008.8
20260504040019 39 231 2.0 4.0 0.00 0.00 0.00 76 1008.7
20260504035018 39 239 1.0 3.0 0.00 0.00 0.00 76 1008.6
20260504034019 39 236 1.0 2.0 0.00 0.00 0.00 78 1008.6
20260504033019 38 229 1.0 2.0 0.00 0.00 0.00 77 1008.5
20260504032039 38 228 1.0 3.0 0.00 0.00 0.00 81 1008.5
20260504031019 38 232 1.0 3.0 0.00 0.00 0.00 79 1008.4
20260504030019 38 216 0.0 3.0 0.00 0.00 0.00 79 1008.3
20260504025059 38 261 0.0 1.0 0.00 0.00 0.00 80 1008.3
20260504024040 38 230 1.0 2.0 0.00 0.00 0.00 80 1008.4
20260504023020 39 235 1.0 2.0 0.00 0.00 0.00 79 1008.4
20260504022020 40 243 0.0 2.0 0.00 0.00 0.00 77 1008.4
20260504021017 41 263 0.0 2.0 0.00 0.00 0.00 72 1008.4
20260504020037 42 273 0.0 2.0 0.00 0.00 0.00 66 1008.4
20260504015017 43 250 1.0 3.0 0.00 0.00 0.00 63 1008.4
20260504014020 44 231 1.0 3.0 0.00 0.00 0.00 61 1008.4
20260504013020 45 233 1.0 3.0 0.00 0.00 0.00 58 1008.5
20260504012018 45 243 1.0 2.0 0.00 0.00 0.00 57 1008.4
20260504011018 46 258 1.0 2.0 0.00 0.00 0.00 57 1008.2
20260504010018 46 274 1.0 3.0 0.00 0.00 0.00 56 1008.0
20260504005018 47 275 2.0 4.0 0.00 0.00 0.00 55 1007.8
20260504004019 47 280 3.0 5.0 0.00 0.00 0.00 53 1007.6
20260504003019 47 283 3.0 8.0 0.00 0.00 0.00 53 1007.5
20260504002019 48 282 1.0 4.0 0.00 0.00 0.00 52 1007.3
20260504001019 48 287 3.0 7.0 0.00 0.00 0.00 51 1007.2
20260504000039 49 294 3.0 10.0 0.00 0.00 0.00 49 1007.0
20260503235019 49 302 5.0 11.0 0.00 0.00 0.00 48 1006.8
20260503234016 50 299 5.0 9.0 0.00 0.02 0.00 48 1006.7
20260503233017 51 293 5.0 14.0 0.00 0.03 0.00 47 1006.6
20260503232040 51 319 4.0 9.0 0.00 0.03 0.00 47 1006.4
20260503231020 52 301 5.0 11.0 0.00 0.03 0.00 46 1006.2
20260503230020 52 299 5.0 9.0 0.00 0.03 0.00 46 1006.0
20260503225017 52 311 5.0 10.0 0.00 0.03 0.00 46 1005.9
20260503224018 52 297 6.0 12.0 0.00 0.03 0.00 46 1005.8
20260503223018 51 301 5.0 13.0 0.00 0.03 0.00 48 1005.7
20260503222018 51 322 6.0 12.0 0.00 0.03 0.00 48 1005.5
20260503221018 52 316 5.0 11.0 0.00 0.03 0.00 48 1005.4
20260503220018 52 295 5.0 12.0 0.00 0.03 0.00 48 1005.3
20260503215018 54 296 8.0 16.0 0.00 0.03 0.00 47 1005.2
20260503214021 54 287 7.0 17.0 0.00 0.03 0.00 46 1005.0